Flag for U.S.A. Weather past 2 weeks in Bryan – College Station, Texas, U.S.A.

Now
73 °F

Overcast.


Feels Like: 72 °F
Forecast: 71 / 80 °F
Wind: 10 mph from Southeast

Location: Easterwood Field

Current Time: May 23, 2015 at 12:02:29 AM

Latest Report: May 22, 2015 at 10:53 PM


Visibility: 10 mi

Pressure: 30.09 "Hg

Humidity: 84%

Dew point: 68 °F

Location of Bryan – College StationLocation

Historic Weather in Bryan – College Station — Graph

°F

Bryan – College Station temperature yesterday

Maximum temperature yesterday: 80 °F (at 2:53 PM)
Minimum temperature yesterday: 65 °F (at 4:53 AM)
Average temperature yesterday: 71 °F

Past Weeks' High & Low Weather Summary

 TemperatureHumidityPressure
High88 °F (May 20, 3:53 PM)97% (May 12, 5:58 AM)30.19 "Hg (May 12, 5:58 AM)
Low65 °F (May 21, 8:53 AM)55% (May 20, 3:53 PM)29.79 "Hg (May 10, 6:53 PM)
Average75 °F85%29.98 "Hg
* Reported May 7 10:53 PM — May 22 10:53 PM, Bryan – College Station, Weather by CustomWeather, © 2015

Note: Actual official high and low records may vary slightly from our data, if they occured in-between our weather recording intervals... More about our weather records

Advertising

Bryan – College Station weather history for previous 24 hours

 ConditionsComfort  
Time TempWeatherWind HumidityBarometerVisibility
10:53 PM
Fri, May 22
73 °FOvercast.10 mph84%30.09 "Hg10 mi
9:53 PM74 °FMostly cloudy.12 mph82%30.08 "Hg10 mi
8:53 PM75 °FMostly cloudy.10 mph79%30.07 "Hg10 mi
7:53 PM76 °FScattered clouds.10 mph80%30.06 "Hg10 mi
6:53 PM78 °FCloudy.10 mph74%30.06 "Hg10 mi
5:53 PM78 °FOvercast.6 mph74%30.08 "Hg10 mi
4:53 PM78 °FBroken clouds.9 mph71%30.07 "Hg10 mi
3:53 PM78 °FOvercast.9 mph71%30.08 "Hg10 mi
2:53 PM80 °FPassing clouds.12 mph67%30.08 "Hg10 mi
1:53 PM77 °FOvercast.12 mph71%30.09 "Hg10 mi
12:53 PM73 °FOvercast.8 mph79%30.12 "Hg10 mi
11:53 AM69 °FOvercast.9 mph84%30.14 "Hg10 mi
10:53 AM68 °FLow clouds.10 mph87%30.12 "Hg10 mi
10:04 AM66 °FLow clouds.13 mph93%30.13 "Hg10 mi
9:53 AM66 °FLow clouds.10 mph93%30.12 "Hg10 mi
8:53 AM65 °FFog.9 mph97%30.13 "Hg4 mi
7:53 AM65 °FFog.12 mph97%30.11 "Hg1 mi
6:53 AM65 °FFog.8 mph97%30.10 "Hg2 mi
5:53 AM65 °FFog.9 mph97%30.09 "Hg5 mi
4:53 AM65 °FLow clouds.9 mph97%30.09 "Hg8 mi
3:53 AM66 °FLow clouds.8 mph93%30.08 "Hg10 mi
2:53 AM66 °FFog.8 mph93%30.09 "Hg4 mi
1:53 AM66 °FLow clouds.13 mph93%30.09 "Hg9 mi
12:53 AM66 °FFog.8 mph96%30.10 "Hg5 mi
Weather by CustomWeather, © 2015

See weather overviewHow to use our weather pages